CAPE
0 0 0 0 0 0 0 0 0 0 0 1 1 1 1 1 0 0 1 1 2 0 3 27 31 8 8 0 0 1 0 7 19 3 0 0 5 4 9 6 0 0 0
0 0 0 0 0 0 0 0 0 0 1 1 0 0 0 1 2 0 0 0 2 3 3 58 35 13 0 0 1 0 1 11 0 2 0 3 2 0 1 1 0 0 0
0 0 0 0 0 0 0 0 0 0 1 1 1 0 1 0 0 1 2 2 2 4 1 20 43 5 0 0 0 0 0 0 1 0 0 3 7 0 0 0 0 0 0
0 0 0 0 0 0 0 0 0 0 0 0 0 0 1 2 1 2 3 3 1 3 3 6 2 5 0 0 0 0 0 0 0 0 0 0 0 3 2 0 0 0 0
0 0 0 0 0 0 0 0 0 0 0 0 0 0 1 2 2 2 2 3 4 2 3 3 33 5 2 0 0 0 0 0 0 0 0 0 0 0 0 0 0 0 0
0 0 0 0 0 0 0 0 0 0 0 0 0 1 2 2 3 2 4 5 5 4 4 0 3 2 2 1 0 0 0 0 0 0 0 0 0 0 0 0 1 0 0
0 0 0 0 0 0 0 0 0 0 0 0 0 1 1 1 2 4 5 4 7 4 1 1 9 8 2 5 0 0 0 0 0 0 0 0 0 0 0 0 0 0 0
0 0 0 0 0 0 0 0 0 0 0 0 0 0 0 0 0 3 3 2 6 8 7 1 1 7 8 1 1 0 0 0 0 0 0 0 0 0 0 0 0 0 0
0 0 0 0 0 0 0 0 0 0 0 0 0 0 0 0 1 2 1 2 3 4 3 5 0 10 14 2 0 0 0 0 0 0 0 0 0 0 0 0 0 0 0
0 0 0 0 0 0 0 0 0 0 0 0 0 0 0 0 1 1 2 2 2 3 4 6 2 3 29 4 0 0 0 0 0 0 0 0 0 0 0 0 0 0 0
0 0 0 0 0 0 0 0 0 0 0 0 0 0 0 0 0 2 1 2 3 4 5 4 5 0 16 3 2 0 0 0 0 0 0 0 0 0 0 0 0 0 0
0 0 0 0 0 0 0 0 0 0 0 0 0 0 0 0 0 1 2 2 3 4 5 4 2 0 16 5 1 1 0 0 0 0 0 0 0 0 0 0 0 0 0
0 0 0 0 0 0 0 0 0 0 0 0 0 0 0 0 0 1 1 2 3 3 3 4 6 0 3 17 4 0 0 0 0 0 0 0 0 0 0 0 0 0 0
0 0 0 0 0 0 0 0 0 0 0 0 0 0 0 0 0 0 1 2 2 5 5 5 3 1 3 20 14 2 0 0 0 0 0 0 0 0 0 0 0 0 0
0 0 0 0 0 0 0 0 0 0 0 0 0 0 0 0 0 1 1 1 2 3 3 6 5 1 5 5 6 2 1 1 0 0 0 0 0 0 0 0 0 0 0
0 0 0 0 0 0 0 0 0 0 0 0 0 0 0 0 0 0 1 2 3 3 3 5 8 7 5 8 5 0 1 1 0 0 0 0 0 0 0 0 0 0 0
0 0 0 0 0 0 0 0 0 0 0 0 0 0 0 0 0 0 1 2 3 3 3 5 4 4 2 5 13 5 0 1 1 0 0 0 0 0 0 0 0 0 0
0 0 0 0 0 0 0 0 0 0 0 0 0 0 0 0 0 0 0 0 2 2 3 3 3 3 1 3 5 3 1 0 1 0 0 0 0 0 0 0 0 0 0
0 0 0 0 0 0 0 0 0 0 0 0 0 0 0 0 0 0 0 0 0 1 2 2 2 3 2 3 3 4 2 0 2 1 1 0 0 0 0 0 0 0 0
0 0 0 0 0 0 0 0 0 0 0 0 0 0 0 0 0 0 0 0 0 0 2 1 2 2 2 2 3 2 6 3 2 0 1 0 1 0 0 0 0 0 0
0 0 0 0 0 0 0 0 0 0 0 0 0 0 0 0 0 0 0 0 0 0 1 0 1 1 1 1 3 3 3 8 8 7 2 1 0 0 0 0 0 0 0
0 0 0 0 0 0 0 0 0 0 0 0 0 0 0 0 0 0 0 0 0 0 0 0 0 1 0 1 2 3 2 1 7 8 7 4 4 0 0 0 0 0 0
0 0 0 0 0 0 0 0 0 0 0 0 0 0 0 0 0 0 0 0 0 0 0 0 0 0 0 0 2 0 0 2 1 3 4 3 4 0 0 0 0 0 0
0 0 0 0 0 0 0 0 0 0 0 0 0 0 0 0 0 0 0 0 0 0 0 0 0 0 0 0 1 1 1 1 2 0 0 4 0 0 0 0 0 3 1
0 0 0 0 0 0 0 0 0 0 0 0 0 0 0 0 0 0 0 0 0 0 0 0 0 0 0 2 4 2 1 1 2 0 0 0 0 1 3 4 1 1 0
0 0 0 0 0 0 0 0 0 0 0 0 0 0 0 0 0 0 0 0 0 0 0 2 2 0 4 6 7 3 3 2 1 0 0 0 0 3 2 3 6 7 6
CIN
0 0 0 0 0 0 0 0 0 0 0 0 0 0 0 0 0 0 0 0 0 0 -21 -1 -11 -22 -55 0 0 0 0 -39 -67 -84 -0 -0 -42 -54 -51 -46 -10 0 0
0 0 0 0 0 0 0 0 0 0 0 0 -0 0 -0 0 0 0 0 0 0 0 0 -0 -1 -10 0 0 0 0 -1 -28 0 -35 0 -10 -20 -42 -51 -41 0 0 0
0 0 0 0 0 0 0 0 0 0 0 0 -0 -0 0 0 0 0 0 0 0 0 0 -1 -35 -24 0 0 0 0 0 0 0 0 0 -11 -3 -27 0 0 0 0 0
0 0 0 0 0 0 0 0 0 0 0 0 -0 0 0 0 0 0 0 0 0 0 0 -21 -4 -9 -0 -0 0 0 0 0 0 0 -10 0 0 -9 -15 0 0 0 0
0 0 0 0 0 0 0 0 0 0 0 0 0 -0 0 0 0 0 0 0 0 0 0 -5 -21 -6 0 0 0 0 0 0 0 0 0 0 0 0 0 0 0 0 0
0 0 0 0 0 0 0 0 0 0 0 0 0 0 0 0 0 0 0 0 0 0 0 -0 -0 -2 0 -1 0 0 0 0 0 0 0 0 0 0 0 0 0 0 0
0 0 0 0 0 0 0 0 0 0 0 0 0 0 0 0 0 0 0 0 0 0 0 -1 -18 -17 0 -0 0 0 0 0 0 0 0 0 0 0 0 0 0 0 0
0 0 0 0 0 0 0 0 0 0 0 0 0 0 0 0 0 0 0 0 0 0 0 0 0 -12 -5 -0 -7 0 0 0 0 0 0 0 0 0 0 0 0 0 0
0 0 0 0 0 0 0 0 0 0 0 0 0 0 0 0 0 0 0 0 0 0 0 0 0 -0 -9 0 -0 0 0 0 0 0 0 0 0 0 0 0 0 0 0
0 0 0 0 0 0 0 0 0 0 0 0 0 0 0 0 0 0 0 0 0 0 0 0 0 -23 0 -5 -0 0 0 0 0 0 0 0 0 0 0 0 0 0 0
0 0 0 0 0 0 0 0 0 0 0 0 0 0 0 0 0 0 0 0 0 0 0 0 0 0 -2 -2 0 0 0 0 0 0 0 0 0 0 0 0 0 0 0
0 0 0 0 0 0 0 0 0 0 0 0 0 0 0 0 0 0 0 0 0 0 0 0 0 0 -13 -11 0 0 0 0 0 0 0 0 0 0 0 0 0 0 0
0 0 0 0 0 0 0 0 0 0 0 0 0 0 0 0 0 0 0 0 0 0 0 0 0 0 -41 -15 -21 -1 0 0 0 0 0 0 0 0 0 0 0 0 0
0 0 0 0 0 0 0 0 0 0 0 0 0 0 0 0 0 0 0 0 0 0 0 0 0 0 0 -14 -21 -6 0 0 0 0 0 0 0 0 0 0 0 0 0
0 0 0 0 0 0 0 0 0 0 0 0 0 0 0 0 0 0 0 0 0 0 0 0 0 0 0 -3 -2 -0 0 0 0 0 0 0 0 0 0 0 0 0 0
0 0 0 0 0 0 0 0 0 0 0 0 0 0 0 0 0 0 0 0 0 0 0 0 0 0 0 0 0 0 0 0 0 0 0 0 0 0 0 0 0 0 0
0 0 0 0 0 0 0 0 0 0 0 0 0 0 0 0 0 0 0 0 0 0 0 0 0 0 0 0 0 0 0 0 0 0 0 0 0 0 0 0 0 0 0
0 0 0 0 0 0 0 0 0 0 0 0 0 0 0 0 0 0 0 0 0 0 0 0 0 0 0 -0 0 0 0 0 0 0 0 0 0 0 0 0 0 0 0
0 0 0 0 0 0 0 0 0 0 0 0 0 0 0 0 0 0 0 0 0 0 0 0 0 0 0 -0 0 0 0 0 0 0 -13 0 0 0 0 0 0 0 0
0 0 0 0 0 0 0 0 0 0 0 0 0 0 0 0 0 0 0 0 0 0 0 0 0 0 0 0 -0 0 0 0 0 0 0 0 0 0 0 0 0 0 0
0 0 0 0 0 0 0 0 0 0 0 0 0 0 0 0 0 0 0 0 0 0 0 0 0 0 0 0 -0 -0 0 0 0 0 0 0 0 0 0 0 0 0 0
0 0 0 0 0 0 0 0 0 0 0 0 0 0 0 0 0 0 0 0 0 0 0 0 0 0 0 0 0 0 -0 0 0 0 0 0 0 0 0 0 0 0 0
0 0 0 0 0 0 0 0 0 0 0 0 0 0 0 0 0 0 0 0 0 0 0 0 0 0 0 0 -0 -0 0 0 0 0 0 0 0 0 0 0 0 0 0
0 0 0 0 0 0 0 0 0 0 0 0 0 0 0 0 0 0 0 0 0 0 0 0 0 0 0 0 -0 0 0 0 0 0 0 0 0 0 0 0 0 0 0
0 0 0 0 0 0 0 0 0 0 0 0 0 0 0 0 0 0 0 0 0 -1 0 -1 0 0 0 -1 -0 -1 -0 0 0 0 0 0 0 0 0 0 0 0 0
0 0 0 0 0 0 0 0 0 0 0 0 0 0 0 0 0 0 0 0 0 0 -0 -1 -2 -0 -0 -0 -0 0 -0 0 0 0 0 0 0 0 0 0 0 0 0
Wind_Speed
41 44 45 45 46 45 45 46 49 48 48 48 49 51 52 52 53 51 49 45 45 49 46 35 44 36 33 39 33 32 30 29 26 24 22 20 20 18 19 16 12 9 9
43 45 45 43 42 42 42 44 46 46 46 46 47 49 51 52 53 53 53 51 48 43 47 40 43 45 39 38 35 35 32 32 30 30 25 25 24 23 22 17 14 12 11
42 43 42 41 39 39 41 44 45 45 44 45 45 47 48 50 52 51 50 48 45 50 51 47 44 48 42 43 40 37 35 35 34 31 30 27 28 22 23 20 17 15 14
38 39 39 37 36 36 39 43 44 43 42 42 43 46 50 54 52 52 52 51 50 48 46 49 45 48 45 45 44 41 36 34 36 34 33 30 24 25 26 26 23 22 16
36 37 36 31 31 33 40 42 42 42 41 41 41 43 47 49 49 50 51 51 51 51 48 45 45 45 49 47 45 43 40 36 36 36 33 30 24 23 25 28 26 26 24
35 34 31 27 28 33 38 40 40 40 39 39 39 41 44 47 51 50 50 49 49 48 51 41 47 39 48 45 45 44 41 36 35 36 35 33 31 28 27 25 25 24 28
34 33 30 27 27 32 38 40 39 40 38 37 38 39 41 44 48 49 49 48 47 46 46 34 40 41 48 51 47 43 43 39 38 38 37 36 33 28 30 27 26 26 24
31 31 27 24 23 28 36 38 38 38 37 36 36 36 37 40 43 45 47 48 47 46 43 35 31 38 50 49 46 43 44 42 40 39 38 37 35 30 30 28 24 25 26
30 29 25 22 21 24 34 37 36 35 34 34 33 33 34 37 40 42 45 46 45 44 46 42 40 36 44 48 47 45 49 44 41 41 38 38 37 33 31 30 26 22 24
30 28 24 21 19 20 28 36 34 32 31 31 30 29 31 33 35 37 41 44 44 45 46 48 43 41 38 41 48 48 49 44 45 41 40 37 37 35 33 32 30 28 25
28 27 23 19 17 17 25 35 31 29 28 28 27 26 27 28 30 33 37 40 41 43 44 43 45 40 34 41 47 48 46 47 45 43 41 39 37 36 35 34 33 31 28
27 25 23 20 17 16 21 34 29 26 25 25 24 23 23 24 26 30 32 34 38 38 41 40 40 40 39 33 43 47 49 49 47 44 42 41 38 38 37 36 35 34 31
26 25 23 22 17 14 15 32 28 23 22 23 23 21 20 20 22 25 28 30 31 33 34 38 40 37 41 43 40 46 49 48 50 47 44 42 40 40 38 38 37 35 33
24 23 23 22 18 13 13 20 27 23 20 20 20 19 18 18 19 21 23 25 27 28 29 33 33 31 37 34 40 45 46 45 49 49 46 44 41 41 39 39 39 36 35
23 22 23 22 20 15 12 17 27 24 20 18 18 17 18 16 16 17 19 21 21 23 25 27 27 24 22 27 35 38 45 48 44 46 47 45 42 41 38 38 39 38 37
21 21 21 21 20 17 11 13 27 25 22 18 18 17 17 14 14 16 17 18 18 19 21 22 22 24 23 21 24 32 35 45 45 45 47 46 44 42 40 38 37 39 39
18 19 20 20 20 18 13 9 10 25 24 20 17 17 16 15 13 14 16 15 17 17 18 19 21 22 23 22 23 29 38 38 41 43 44 46 45 42 41 40 39 40 40
16 16 17 18 19 19 16 11 9 17 24 22 18 17 16 15 14 13 13 15 16 17 18 18 19 22 25 24 24 25 30 35 34 43 44 43 44 44 42 42 43 40 43
14 14 15 17 17 18 18 15 11 2 22 22 20 17 16 14 14 13 14 15 16 16 17 19 19 22 24 25 26 26 28 31 34 39 41 42 43 44 44 43 43 42 45
12 12 12 14 15 16 17 18 15 11 9 20 21 19 16 15 14 14 16 16 16 16 17 18 17 20 23 24 24 25 30 34 38 38 42 41 44 44 41 44 44 45 43
9 11 11 11 13 15 16 17 16 15 10 9 19 20 18 16 15 15 16 17 18 17 17 18 20 21 22 22 23 25 28 34 38 40 37 45 50 46 44 42 43 44 41
9 9 9 9 11 13 15 16 17 15 13 10 3 20 20 18 18 17 17 17 18 19 20 21 22 22 23 24 25 26 27 29 34 40 39 39 43 49 47 47 44 43 43
10 9 7 8 9 11 12 14 16 16 15 13 10 6 20 20 20 19 19 19 19 19 21 22 23 24 24 25 26 28 28 30 31 34 40 42 42 47 46 47 45 44 41
13 11 9 7 7 10 11 12 15 17 18 18 16 10 6 12 21 21 21 21 22 22 23 23 25 26 27 27 28 27 28 28 30 32 35 36 34 37 46 39 45 41 40
16 14 11 9 7 10 11 12 15 17 19 20 19 21 19 15 16 22 22 22 23 23 24 25 25 28 29 29 29 28 29 29 29 28 30 31 32 35 36 36 38 40 39
19 17 15 12 9 11 12 14 15 17 19 21 21 21 21 22 23 23 23 21 21 22 23 24 25 26 27 29 29 28 28 28 28 27 28 30 30 31 33 38 35 36 38
Wind_Direction
334 333 332 328 323 318 310 304 300 295 290 282 275 269 263 259 256 253 254 254 254 247 245 235 226 227 223 223 222 221 218 222 220 220 227 238 242 242 240 236 233 242 257
337 337 335 332 327 321 314 306 302 296 289 281 275 268 263 258 255 253 251 250 251 249 247 230 228 228 227 225 223 219 218 223 219 225 222 232 240 242 240 234 234 242 252
339 340 338 334 330 324 317 309 303 298 291 283 276 269 263 257 251 249 247 247 250 248 243 232 229 226 224 226 223 220 217 220 223 224 227 231 237 230 240 237 240 244 248
344 344 342 338 334 328 323 313 306 300 293 285 275 265 257 250 249 248 247 246 246 244 243 238 228 224 222 224 223 221 219 220 221 225 232 234 234 229 236 240 243 246 247
348 346 345 343 340 334 326 319 311 302 295 286 276 266 258 251 249 247 245 244 244 242 242 241 223 224 224 223 221 221 221 223 222 224 228 232 231 230 240 237 239 246 248
352 351 350 349 345 338 331 322 315 305 297 288 278 268 259 251 245 243 242 241 241 239 237 244 224 218 220 221 221 220 221 223 223 225 227 228 231 231 236 242 239 241 245
354 355 354 353 351 345 333 322 314 307 300 289 280 270 260 250 244 241 240 239 238 236 233 244 231 224 221 223 220 223 223 224 225 225 229 232 234 234 236 242 242 242 248
358 359 359 358 357 352 339 324 310 305 301 293 283 272 263 249 244 241 239 237 237 236 237 242 245 231 226 222 220 224 225 226 227 227 231 233 234 232 235 238 236 244 246
2 3 3 4 3 1 344 323 312 304 300 296 287 274 263 250 244 242 239 236 236 236 234 237 238 238 231 221 221 224 226 226 228 229 231 233 233 232 234 235 236 244 246
5 6 8 9 10 9 358 327 313 304 300 297 291 278 263 253 247 242 238 235 235 235 233 234 239 240 233 225 223 226 225 227 228 230 231 233 232 232 233 234 239 245 250
8 9 12 15 16 17 8 336 311 306 303 301 296 284 267 257 248 242 238 235 234 233 232 234 236 238 238 230 223 224 225 228 227 229 231 232 231 231 233 235 239 242 247
12 14 17 19 23 25 19 338 314 305 301 302 301 290 275 262 249 241 239 237 235 237 236 236 237 237 239 238 227 228 227 228 228 229 231 231 232 232 233 235 238 241 244
16 19 23 25 28 32 32 333 316 304 301 302 304 297 285 269 253 245 241 239 238 237 238 237 237 239 242 236 235 234 229 230 228 229 230 231 232 234 235 236 238 241 244
19 24 27 30 33 39 42 30 315 310 301 302 300 303 294 276 260 249 244 241 241 239 239 239 243 245 247 242 239 236 228 228 228 230 231 233 233 235 236 237 238 240 241
23 28 32 34 38 42 49 41 323 314 305 300 300 300 301 282 268 254 249 245 244 243 245 244 243 250 260 252 244 236 228 226 230 232 232 235 236 237 237 237 238 238 239
26 32 36 39 41 45 56 54 344 317 311 302 306 298 300 298 280 263 255 250 251 252 248 247 242 241 254 258 250 236 232 229 233 234 232 236 238 238 237 237 237 236 236
28 34 39 44 46 49 56 67 67 321 320 312 306 309 299 299 295 276 258 257 259 257 254 252 248 246 253 261 260 248 237 235 236 234 235 237 238 238 239 239 237 238 238
32 38 43 49 51 53 57 65 78 332 325 320 311 309 309 298 296 286 270 264 267 263 259 258 259 253 258 267 266 262 243 240 240 237 241 242 239 239 239 239 240 239 240
34 42 48 51 55 56 58 62 71 174 321 324 315 307 303 305 296 285 275 273 269 270 268 268 271 266 270 280 276 266 255 250 249 242 242 244 239 241 240 239 240 240 242
35 42 51 52 55 59 61 61 65 73 277 311 316 309 302 297 304 290 277 277 280 276 275 272 282 285 276 285 283 275 262 258 254 256 248 247 243 242 239 237 239 240 240
34 41 49 55 55 59 61 61 64 67 79 268 307 315 306 297 296 297 289 282 278 277 283 282 283 286 290 293 299 288 274 266 260 258 257 247 244 245 240 238 239 240 243
26 37 45 55 57 58 59 57 60 68 71 82 232 309 312 303 295 297 296 294 288 281 283 285 284 292 292 296 295 295 288 282 268 261 261 262 257 245 245 243 244 246 243
13 24 35 44 51 55 57 56 55 59 64 70 84 115 311 311 303 295 296 295 293 290 284 285 285 288 293 293 295 295 294 290 280 276 266 263 262 250 248 245 244 243 242
358 8 16 25 37 42 47 51 49 49 50 51 60 84 119 265 313 305 299 296 294 291 290 289 286 288 290 296 295 295 295 297 289 284 274 271 271 259 252 250 245 247 245
345 354 1 4 15 22 28 32 34 34 34 36 41 36 42 41 299 315 308 303 298 296 292 291 292 288 289 294 299 296 293 292 292 289 282 279 273 264 262 257 253 251 247
334 341 347 350 355 1 6 10 15 18 18 17 20 22 19 12 359 340 326 320 311 306 300 297 296 295 297 297 297 296 297 298 293 287 285 279 278 272 268 264 256 256 256